Home > Weather > Wismar > Past weeks

Flag for Germany Weather for the Past 2 Weeks in Wismar, Mecklenburg-Western Pomerania, Germany

Now
45 °F

Partly sunny.


Feels Like: 37 °F
Forecast: 36 / 41 °F
Wind: 16 mph from Southwest

Location: Luebeck-Blankensee

Current Time: Feb 9, 2016 at 1:03:41 PM

Latest Report: Feb 9, 2016 at 11:50 AM


Visibility: N/A

Pressure: 29.24 "Hg

Humidity: 71%

Dew point: 36 °F

Location of WismarLocation

Historic Weather in Wismar — Graph

°F

Wismar Temperature Yesterday

Maximum temperature yesterday: 50 °F (at 1:50 PM)
Minimum temperature yesterday: 43 °F (at 5:50 PM)
Average temperature yesterday: 46 °F

High & Low Weather Summary for the Past Weeks

 TemperatureHumidityPressure
High54 °F (Feb 7, 2:20 PM)100% (Jan 25, 10:20 AM)30.24 "Hg (Jan 25, 10:20 AM)
Low34 °F (Feb 5, 6:50 AM)54% (Feb 2, 3:20 PM)29.12 "Hg (Feb 8, 1:50 PM)
Average45 °F83%29.78 "Hg
* Reported Jan 25 10:20 AM — Feb 9 10:50 AM, Wismar, Weather by CustomWeather, © 2016

Note: Actual official high and low records may vary slightly from our data, if they occured in-between our weather recording intervals... More about our weather records

Advertising

Wismar Weather History for the Previous 24 Hours

 ConditionsComfort  
Time TempWeatherWind HumidityBarometerVisibility
10:50 AM
Tue, Feb 9
46 °FScattered clouds.17 mph66%29.24 "HgN/A
10:20 AM45 °FPassing clouds.20 mph71%29.24 "HgN/A
9:50 AM45 °FPartly sunny.18 mph71%29.27 "HgN/A
8:50 AM45 °FPartly sunny.20 mph66%29.24 "HgN/A
8:20 AM45 °FPartly sunny.21 mph71%29.24 "HgN/A
7:50 AM45 °FPartly sunny.21 mph76%29.24 "HgN/A
6:50 AM43 °FLight rain. Passing clouds.22 mph87%29.21 "HgN/A
7:50 PM
Mon, Feb 8
45 °FClear.14 mph76%29.15 "Hg10 mi
7:20 PM45 °FClear.14 mph76%29.15 "Hg10 mi
6:50 PM45 °FPassing clouds.13 mph76%29.15 "HgN/A
6:20 PM45 °FPassing clouds.14 mph76%29.15 "HgN/A
5:50 PM43 °FScattered showers. Passing clouds.10 mph81%29.15 "HgN/A
5:20 PM46 °FScattered showers. Partly cloudy.16 mph71%29.12 "HgN/A
4:50 PM46 °FScattered clouds.10 mph82%29.12 "HgN/A
4:20 PM46 °FScattered clouds.13 mph82%29.12 "HgN/A
3:50 PM46 °FScattered clouds.15 mph82%29.12 "HgN/A
3:20 PM46 °FScattered showers. Scattered clouds.14 mph76%29.12 "HgN/A
2:50 PM48 °FSprinkles. Scattered clouds.N/A66%29.12 "HgN/A
2:20 PM50 °FScattered clouds.18 mph71%29.12 "HgN/A
1:50 PM50 °FScattered clouds.17 mph71%29.12 "HgN/A
1:20 PM48 °FDrizzle. Partly sunny.20 mph76%29.15 "HgN/A
Weather by CustomWeather, © 2016

See weather overviewHow to use our weather pages